Regional Weather Roundup
Issued by NWS Upton, NY

Current Version | Previous Version | Graphics & Text | Print | Product List | Glossary Off
Versions: 1 2 3 4 5 6 7 8 9 10 11 12 13 14 15 16 17 18 19 20 21 22 23 24 25 26 27 28 29 30 31 32 33 34 35 36 37 38 39 40 41 42 43 44 45 46 47 48 49

440
ASUS41 KOKX 131904
RWROKX

REGIONAL WEATHER ROUNDUP
NATIONAL WEATHER SERVICE NEW YORK NY
200 PM EST SAT FEB 13 2016

NOTE: "FAIR" INDICATES FEW OR NO CLOUDS BELOW 12,000 FEET WITH NO
SIGNIFICANT WEATHER AND/OR OBSTRUCTIONS TO VISIBILITY.

NYZ071-072-176-178-NJZ106-104-132000-
NEW YORK CITY METRO AREA


CITY           SKY/WX    TMP DP  RH WIND       PRES   REMARKS
CENTRAL PARK   SUNNY     18 -11  27 NW17G33   30.08R WCI   3
LAGUARDIA APRT MOSUNNY   19  -7  31 W26G37    30.08R WCI   1
KENNEDY INTL   MOSUNNY   20 -10  26 W32G44    30.08R WCI   1
NEWARK/LIBERTY MOSUNNY   21 -10  25 NW20G35   30.10R WCI   6
BRNX BOT. GARD   N/A     19  -8  30 W21       30.07S WCI   3
TETERBORO      PTSUNNY   18 -13  24 W22G38    30.09R WCI   1
$$

NYZ177-179-078>081-132000-
LONG ISLAND NEW YORK

CITY           SKY/WX    TMP DP  RH WIND       PRES   REMARKS
FARMINGDALE    PTSUNNY   20  -6  31 NW20G30   30.04R WCI   4
ISLIP          MOSUNNY   18  -5  36 W28G40    30.01R WCI  -1
SHIRLEY        MOSUNNY   19  -3  38 NW21G37   30.01R WCI   3
RIVERHEAD        N/A     21 -15  19 NW17      29.96R WCI   7
WESTHAMPTON    SUNNY     18  -5  36 NW24G41   29.99R WCI   0
EAST HAMPTON   MOSUNNY   19  -6  32 NW26G40   29.93S WCI   1
MONTAUK POINT    N/A     22   1  40 NW16G26   29.93R WCI   8
$$

NYZ052-065-067-132000-
HUDSON VALLEY

CITY           SKY/WX    TMP DP  RH WIND       PRES   REMARKS
WHITE PLAINS   MOSUNNY   14 -10  33 NW32G47   30.02R WCI  -7
NEWBURGH       MOSUNNY   12 -11  34 NW25G39   30.06R WCI  -8
MONTGOMERY     MOSUNNY   12 -13  31 W22G31    30.08R WCI  -7
POUGHKEEPSIE   MOSUNNY   16 -14  25 W22G36    30.07R WCI  -2
ALBANY         PTSUNNY    4 -14  43 NW22G37   30.13R WCI -18
$$

NJZ001-105-106-008-010-013-015-019>022-104-132000-
NEW JERSEY

CITY           SKY/WX    TMP DP  RH WIND       PRES   REMARKS
NEWARK/LIBERTY MOSUNNY   21 -10  25 NW20G35   30.10R WCI   6
TETERBORO      PTSUNNY   18 -13  24 W22G38    30.09R WCI   1
CALDWELL       PTSUNNY   15 -14  26 NW21G36   30.11R WCI  -2
MORRISTOWN     PTSUNNY   16  -8  35 NW14G35   30.11R WCI   1
SOMERVILLE     MOSUNNY   19  -9  28 NW10G29   30.10R WCI   7
SUSSEX         CLOUDY    12 -10  36 W18G30    30.10R WCI  -6
ANDOVER          N/A     12 -14  30 NW15G30   30.09R WCI  -4
TRENTON        PTSUNNY   19  -8  30 NW17G31   30.11R WCI   4
MILLVILLE      PTSUNNY   23  -4  30 NW22G39   30.17R WCI   8
ATLANTIC CITY  PTSUNNY   24  -4  29 NW29G37   30.11S WCI   7
WRIGHTSTOWN    PTSUNNY   20  -7  30 NW21G32   30.08S WCI   4
TOMS RIVER     PTSUNNY   21  -2  35 NW26G32   30.10R WCI   4
BELMAR         CLOUDY    21  -6  30 NW26G36   30.07S WCI   4
$$

PAZ047>061-062-071-132000-
EASTERN PENNSYLVANIA

CITY           SKY/WX    TMP DP  RH WIND       PRES   REMARKS
PHILADELPHIA   CLOUDY    21  -7  28 NW25G35   30.18R WCI   4
ALLENTOWN      CLOUDY    17  -2  43 NW21G29   30.14R WCI   0
SCRANTON       CLOUDY     7 -11  43 NW20G31   30.13R WCI -13
$$

CTZ002-004>006-009-010-012-RIZ004-006-007-MAZ004-011-015-132000-
SOUTHERN NEW ENGLAND
 IN CT

CITY           SKY/WX    TMP DP  RH WIND       PRES   REMARKS
BRADLEY INTL   MOSUNNY   13  -6  42 NW26G33   29.98R WCI  -7
HARTFORD       MOSUNNY   18  -5  36 NW17G29   29.98R WCI   3
DANBURY        PTSUNNY   14 -14  27 NW14G30   30.01R WCI  -1
WTRBRY/OXFORD  PTSUNNY   14 -13  29 NW17G30   29.94R WCI  -3
BRIDGEPORT     SUNNY     18  -5  36 W30G39    30.00R WCI  -1
MERIDEN        CLOUDY    17   0  47 NW20G29   29.97R WCI   1
NEW HAVEN      SUNNY     19  -4  36 NW20G35   29.98R WCI   3
CHESTER        MOCLDY    19  -4  35 NW14G24   29.92R WCI   6
GROTON         PTSUNNY   20   0  41 NW23G36   29.92R WCI   3
WILLIMANTIC    PTSUNNY   18  -7  32 NW18G28   29.94R WCI   2

 IN RI

CITY           SKY/WX    TMP DP  RH WIND       PRES   REMARKS
PROVIDENCE     PTSUNNY   20  -4  34 W25G35    29.89R WCI   2
BLOCK ISLAND   CLOUDY    21   1  42 NW18G30   29.87S WCI   6
WESTERLY       MOSUNNY   22  -4  32 W12G22    29.91R WCI  10

 IN MA

CITY           SKY/WX    TMP DP  RH WIND       PRES   REMARKS
BOSTON         MOSUNNY   21  -4  33 NW21G32   29.84S WCI   5
WORCESTER      MOSUNNY   11 -10  38 W26G36    29.82R WCI -10
WESTFIELD      SUNNY     10 -10  40 NW22G38   29.98R WCI -10
PROVINCETOWN   MOSUNNY   24   6  46 W20G25    29.81R WCI  10
NANTUCKET      PTSUNNY   25   5  42 W22G30    29.82R WCI  10
$$

ANZ330-335-338-340-345-350-353-355-132000-
COASTAL MARINE OBSERVATIONS


STATION/POSITION TIME  SKY/WX   TEMP    WIND        PRES    VSBY  WAVE
                                AIR SEA DIR/SP/G                  HT/PER
                 (UTC)          (F)     (DEG/KT/KT) (MB)    (MI)  (FT/S)
NY HARB ENTRANCE 1750            21 43  300/ 29/ 35 1016.9          5/ 5
4S FIRE IS       NOT AVBL
20S FIRE ISLAND  1750            23 41  300/ 29/ 37 1015.6          7/ 6
GREAT SOUTH BAY  NOT AVBL
23SW MTP         1850            22 44  290/ 29/ 39 1013.3          7/ 7
HUDSON CANYON    1750            27 48              1014.7         11/ 8
KINGS POINT      1800            18 35  320/ 23/ 29 1017.1
EXECUTION ROCKS  NOT AVBL
CENTRAL LI SOUND 1800            21     290/ 23/ 31   N/A           5/ 5
EASTERN LI SOUND 1800            22 40  280/ 21/ 33   N/A
ROBBINS REEF     1800            17     310/ 25/ 32 1017.3
$$


>>>>>>>>>>>>>>>>>>>>>>>>>>>> KEY <<<<<<<<<<<<<<<<<<<<<<<<<<<
>                                                          <
>     SKY/WX - SKY CONDITION/PRESENT WEATHER               <
>     TMP    - TEMPERATURE IN FAHRENHEIT                   <
>     DP     - DEWPOINT IN FAHRENHEIT                      <
>     RH     - RELATIVE HUMIDITY IN PERCENT                <
>     WIND   - DIRECTION AND SPEED IN MPH                  <
>     PRES   - MEAN SEA LEVEL PRESSURE IN INCHES OF HG     <
>     WCI    - WIND CHILL INDEX                            <
>     VSB    - VISIBILITY IN MILES                         <
>     HX     - HEAT INDEX                                  <
>     TC     - TEMPERATURE IN CELSIUS                      <
>     VRB    - VARIABLE WIND DIRECTION                     <
>                                                          <
>>>>>>>>>>>>>>>>>>>>>>>>>>>> KEY <<<<<<<<<<<<<<<<<<<<<<<<<<<






USA.gov is the U.S. government's official web portal to all federal, state and local government web resources and services.